Home   Weather   Delbrück   Past weeks

Flag for Germany Past Weather in Delbrück, North Rhine-Westphalia, Germany — Yesterday and Last 2 Weeks

Now
43 °F

Light rain. Broken clouds.


Feels Like: 35 °F
Forecast: 42 / 47 °F
Wind: 15 mph from West

Location: Paderborn / Lippstadt

Current Time: Dec 11, 2016 at 9:16:47 am

Latest Report: Dec 11, 2016 at 8:50 am


Visibility: N/A

Pressure: 30.04 "Hg

Humidity: 87%

Dew Point: 39 °F

Location of DelbrückLocation

Past Weather in Delbrück — Graph

°F

Delbrück Temperature Yesterday

Maximum temperature yesterday: 52 °F (at 12:20 pm)
Minimum temperature yesterday: 45 °F (at 3:20 am)
Average temperature yesterday: 48 °F

High & Low Weather Summary for the Past Weeks

 TemperatureHumidityPressure
High54 °F (Dec 8, 11:50 am)100% (Nov 27, 9:50 am)30.57 "Hg (Nov 27, 9:50 am)
Low18 °F (Nov 29, 6:50 am)28% (Nov 30, 11:50 am)29.86 "Hg (Dec 11, 5:20 am)
Average36 °F77%30.30 "Hg
* Reported Nov 26 7:20 am — Dec 11 7:50 am, Delbrück, Weather by CustomWeather, © 2016

Note: Actual official high and low records may vary slightly from our data, if they occured in-between our weather recording intervals... More about our weather records

Advertising

Delbrück Weather History for the Previous 24 Hours

Scroll right to see more
 ConditionsComfort  
Time TempWeatherWind HumidityBarometerVisibility
7:50 am
Sun, Dec 11
45 °FLight rain. Partly cloudy.16 mph81%29.98 "HgN/A
7:20 am46 °FPartly cloudy.20 mph76%29.95 "HgN/A
6:50 am46 °FLight rain. Passing clouds.21 mph82%29.89 "HgN/A
6:20 am48 °FRain. Passing clouds.23 mph87%29.86 "Hg4 mi
5:50 am48 °FRain. Fog.22 mph87%29.86 "Hg2 mi
5:20 am48 °FRain. Passing clouds.22 mph82%29.86 "HgN/A
4:20 am48 °FLight rain. Passing clouds.20 mph82%29.89 "HgN/A
3:20 am48 °FRain. Passing clouds.17 mph82%29.92 "Hg4 mi
2:50 am48 °FPartly cloudy.14 mph87%29.95 "HgN/A
2:20 am48 °FPartly cloudy.16 mph87%29.95 "HgN/A
1:50 am48 °FPartly cloudy.17 mph87%29.98 "HgN/A
1:20 am48 °FPartly cloudy.15 mph87%29.98 "Hg4 mi
12:50 am48 °FDrizzle. Fog.14 mph87%30.01 "Hg2 mi
12:20 am48 °FPassing clouds.14 mph87%30.04 "Hg4 mi
11:50 pm
Sat, Dec 10
48 °FPassing clouds.13 mph87%30.04 "HgN/A
11:20 pm48 °FOvercast.9 mph87%30.07 "HgN/A
10:50 pm48 °FOvercast.7 mph87%30.07 "HgN/A
10:20 pm48 °FOvercast.6 mph87%30.09 "HgN/A
9:50 pm46 °FOvercast.6 mph93%30.09 "Hg4 mi
9:20 pm46 °FDrizzle. Fog.5 mph93%30.09 "Hg3 mi
8:50 pm46 °FOvercast.7 mph87%30.12 "HgN/A
8:20 pm46 °FOvercast.7 mph87%30.12 "HgN/A
7:50 pm46 °FOvercast.6 mph87%30.15 "HgN/A
7:20 pm46 °FOvercast.3 mph87%30.15 "HgN/A
6:50 pm46 °FOvercast.6 mph82%30.15 "Hg6 mi
6:20 pm48 °FOvercast.7 mph76%30.15 "HgN/A
5:50 pm48 °FOvercast.5 mph71%30.15 "HgN/A
5:20 pm48 °FPassing clouds.3 mph71%30.15 "HgN/A
4:50 pm48 °FPassing clouds.6 mph71%30.15 "HgN/A
4:20 pm48 °FPartly cloudy.5 mph71%30.15 "HgN/A
3:50 pm48 °FScattered clouds.6 mph71%30.18 "HgN/A
3:20 pm48 °FPassing clouds.6 mph71%30.18 "HgN/A
2:50 pm48 °FScattered clouds.7 mph71%30.18 "HgN/A
2:20 pm50 °FSunny.6 mph67%30.18 "Hg10 mi
1:50 pm52 °FPassing clouds.8 mph58%30.18 "HgN/A
1:20 pm52 °FPassing clouds.7 mph58%30.18 "HgN/A
12:50 pm52 °FScattered clouds.9 mph54%30.18 "HgN/A
12:20 pm52 °FScattered clouds.12 mph62%30.18 "HgN/A
11:50 am50 °FScattered clouds.12 mph67%30.18 "HgN/A
11:20 am50 °FScattered clouds.12 mph67%30.21 "HgN/A
10:50 am48 °FScattered clouds.12 mph71%30.21 "HgN/A
10:20 am48 °FPassing clouds.12 mph71%30.21 "HgN/A
9:50 am48 °FSunny.17 mph66%30.21 "Hg10 mi
9:20 am48 °FSunny.13 mph66%30.21 "Hg10 mi
Weather by CustomWeather, © 2016

See weather overviewHow to use our weather pages